SWA104 KMKE-KBOS

Flight info

Callsign SWA104
Flight time N/A
Altitude 37000
Route DCT SQUIB DCT HAUCK DCT HRRSH DCT HOCKE Q935 PONCT JFUND2
Aircraft B738/M-SDE2E3FGHIRWXY/LB1

Departure

Time 2026-04-22 21:14
Airport General Mitchell International Airport (KMKE)

Arrival

Time N/A
Airport Boston Logan International Airport (KBOS)
Time Latitude Longitude Altitude Speed Heading
2026-04-22 20:59 42.94988 -87.89962 687 ft 0 kts 321°
2026-04-22 21:09 42.94980 -87.89953 687 ft 3 kts 329°
2026-04-22 21:09 42.94963 -87.89944 680 ft 3 kts
2026-04-22 21:09 42.94946 -87.89951 681 ft 3 kts 39°
2026-04-22 21:10 42.94945 -87.89952 681 ft 0 kts 40°
2026-04-22 21:11 42.94961 -87.89922 686 ft 16 kts 59°
2026-04-22 21:11 42.95016 -87.89809 685 ft 25 kts 33°
2026-04-22 21:11 42.95190 -87.89684 685 ft 27 kts 27°
2026-04-22 21:12 42.95352 -87.89565 682 ft 26 kts 28°
2026-04-22 21:12 42.95515 -87.89495 687 ft 24 kts
2026-04-22 21:12 42.95676 -87.89468 683 ft 23 kts
2026-04-22 21:12 42.95741 -87.89360 687 ft 16 kts 102°
2026-04-22 21:13 42.95687 -87.89313 685 ft 9 kts 187°
2026-04-22 21:13 42.95361 -87.89365 687 ft 87 kts 187°
2026-04-22 21:13 42.94511 -87.89515 686 ft 156 kts 187°
2026-04-22 21:13 42.93366 -87.89734 1261 ft 165 kts 186°
2026-04-22 21:14 42.92245 -87.89937 2067 ft 166 kts 183°
2026-04-22 21:14 42.91080 -87.89628 2549 ft 184 kts 142°
2026-04-22 21:14 42.90415 -87.88127 3109 ft 198 kts 96°
2026-04-22 21:14 42.90702 -87.86234 3672 ft 214 kts 65°
2026-04-22 21:15 42.91381 -87.84338 4243 ft 230 kts 64°
2026-04-22 21:15 42.92052 -87.82333 4857 ft 232 kts 68°
2026-04-22 21:15 42.92595 -87.80249 5426 ft 235 kts 73°
2026-04-22 21:15 42.93007 -87.78073 6058 ft 237 kts 77°
2026-04-22 21:16 42.93302 -87.75848 6678 ft 240 kts 80°
2026-04-22 21:16 42.93505 -87.73584 7280 ft 242 kts 83°
2026-04-22 21:16 42.93635 -87.71286 7895 ft 243 kts 84°
2026-04-22 21:16 42.93711 -87.68972 8504 ft 245 kts 86°
2026-04-22 21:17 42.93746 -87.66644 9147 ft 246 kts 87°
2026-04-22 21:17 42.93750 -87.64311 9789 ft 246 kts 88°
2026-04-22 21:17 42.93732 -87.61968 10281 ft 252 kts 88°
2026-04-22 21:17 42.93698 -87.59496 10554 ft 267 kts 88°
2026-04-22 21:18 42.93647 -87.56892 10859 ft 282 kts 89°